MINXSS-2 (43758 NORAD) Tracking and Keplerian Element Data

This shows tracking and keplerian element data for the satellite.

Feedback or suggestion? Click here.




ElementValue
Catalog43758
NameMINXSS-2
Epoch Orbit33782
Epoch Day34.76981971
Epoch Year2025
RAAN100.8123
Inclination97.5209
Eccentricity0.0012473
Argument of Perigee235.2607
Mean Anonmoly124.7454
Mean Motion15.1967337
Decay Rate0.00021306
L11 43758U 18099A 25034.76981971 .00021306 00000+0 99777-3 0 9999
L22 43758 97.5209 100.8123 0012473 235.2607 124.7454 15.19673370337820



Live tracking and technical data element details for MINXSS-2 (NORAD 43758). MINXSS-2 can be tracked NOW for your location showing map with azimuth and elevation plus other details from your city location.







IsCatalogInMostPopularTable: catalog: 43758, numindb: 365
Update: records affected: 1



GetName: 43758 MINXSS-2

Hit Count: updated at: Fri, 16 May 2025 10:36:46 GMT